Weather History for K4M9 - July, 2013

Change the Weather History Date:

Wednesday, July 17, 2013

  Actual Average (KARG) Record (KARG)
Temperature  
Mean Temperature 82 °F -  
Max Temperature 93 °F 88 °F 96 °F (1998)
Min Temperature 71 °F 70 °F 60 °F (2014)
Cooling Degree Days 17    
Growing Degree Days 32 (Base 50)    
Moisture  
Dew Point 73 °F    
Average Humidity 73    
Maximum Humidity 100    
Minimum Humidity 49    
Precipitation  
Precipitation 0.18 in - - ()
Sea Level Pressure  
Sea Level Pressure 30.26 in    
Wind  
Wind Speed 3 mph (NNE)    
Max Wind Speed 6 mph    
Max Gust Speed -    
Visibility 9 miles    
Events Rain    
Averages and records for this station are not official NWS values.
T = Trace of Precipitation, MM = Missing Value Source: NWS Daily Summary

Daily Weather History Graph

Daily Weather History Graph

Search for Another Location

Airport or City:

Trip Planner

Search our weather history database for the weather conditions in past years. The results will help you decide how hot, cold, wet, or windy it might be!

Date:

Astronomy

Jul. 17, 2013 Rise Set
Actual Time 5:57 AM CDT 8:19 PM CDT
Civil Twilight 5:28 AM CDT 8:48 PM CDT
Nautical Twilight 4:52 AM CDT 9:25 PM CDT
Astronomical Twilight 4:12 AM CDT 10:04 PM CDT
Moon 3:10 PM CDT (7/17) 1:01 AM CDT (7/17)
Length of Visible Light 15h 20m
Length of Day
14h 21m
Waxing Gibbous, 67% of the Moon is Illuminated
Jul 17
Waxing Gibbous
Jul 22
Full
Jul 29
Last Quarter
Aug 6
New
Aug 14
First Quarter

Hourly Weather History & Observations

Time (CDT) Temp. Heat Index Dew Point Humidity Pressure Visibility Wind Dir Wind Speed Gust Speed Precip Events Conditions
12:15 AM 77.0 °F - 73.4 °F 89% 30.28 in 10.0 mi East 5.8 mph - N/A   Clear
12:35 AM 77.0 °F - 73.4 °F 89% 30.28 in 10.0 mi ESE 4.6 mph - N/A   Clear
12:55 AM 75.2 °F - 71.6 °F 89% 30.28 in 10.0 mi Calm Calm - N/A   Clear
1:15 AM 75.2 °F - 73.4 °F 94% 30.28 in 10.0 mi Calm Calm - N/A   Clear
1:35 AM 75.2 °F - 71.6 °F 89% 30.28 in 10.0 mi Calm Calm - N/A   Clear
1:55 AM 75.2 °F - 73.4 °F 94% 30.27 in 10.0 mi Calm Calm - N/A   Clear
2:15 AM 75.2 °F - 73.4 °F 94% 30.27 in 10.0 mi NNE 3.5 mph - N/A   Clear
2:35 AM 75.2 °F - 73.4 °F 94% 30.27 in 10.0 mi NNE 3.5 mph - N/A   Clear
2:55 AM 75.2 °F - 73.4 °F 94% 30.27 in 10.0 mi NNE 4.6 mph - N/A   Clear
3:15 AM 75.2 °F - 73.4 °F 94% 30.27 in 10.0 mi NNE 4.6 mph - N/A   Clear
3:35 AM 73.4 °F - 73.4 °F 100% 30.27 in 10.0 mi North 3.5 mph - N/A   Clear
3:55 AM 73.4 °F - 73.4 °F 100% 30.27 in 10.0 mi NNE 3.5 mph - N/A   Clear
4:15 AM 73.4 °F - 73.4 °F 100% 30.27 in 10.0 mi NNE 3.5 mph - N/A   Clear
4:35 AM 75.2 °F - 73.4 °F 94% 30.27 in 10.0 mi Calm Calm - N/A   Clear
4:55 AM 73.4 °F - 73.4 °F 100% 30.28 in 8.0 mi Calm Calm - N/A   Clear
5:15 AM 71.6 °F - 71.6 °F 100% 30.29 in 6.0 mi NW 3.5 mph - N/A   Clear
5:35 AM 73.4 °F - 73.4 °F 100% 30.30 in 8.0 mi NNW 4.6 mph - N/A   Clear
5:55 AM 73.4 °F - 73.4 °F 100% 30.30 in 6.0 mi NNW 3.5 mph - N/A   Clear
6:15 AM 73.4 °F - 73.4 °F 100% 30.30 in 7.0 mi Calm Calm - N/A   Clear
6:35 AM 75.2 °F - 75.2 °F 100% 30.31 in 8.0 mi North 3.5 mph - N/A   Clear
6:55 AM 75.2 °F - 73.4 °F 94% 30.31 in 8.0 mi NNE 5.8 mph - N/A   Clear
7:15 AM 77.0 °F - 73.4 °F 89% 30.31 in 9.0 mi NNE 5.8 mph - N/A   Clear
7:35 AM 78.8 °F - 75.2 °F 89% 30.33 in 9.0 mi NNE 4.6 mph - N/A   Clear
7:55 AM 80.6 °F 86.2 °F 75.2 °F 84% 30.33 in 9.0 mi NE 5.8 mph - N/A   Clear
8:15 AM 82.4 °F 89.5 °F 75.2 °F 79% 30.33 in 10.0 mi NE 4.6 mph - N/A   Clear
8:35 AM 82.4 °F 89.5 °F 75.2 °F 79% 30.33 in 8.0 mi NE 4.6 mph - N/A   Clear
8:55 AM 84.2 °F 90.9 °F 73.4 °F 70% 30.32 in 10.0 mi NNE 3.5 mph - N/A Rain Light Rain
9:15 AM 84.2 °F 90.9 °F 73.4 °F 70% 30.32 in 9.0 mi NNW 4.6 mph - N/A Rain Light Rain
9:35 AM 84.2 °F 90.9 °F 73.4 °F 70% 30.32 in 10.0 mi Calm Calm - N/A Rain Light Rain
9:55 AM 86.0 °F 93.4 °F 73.4 °F 66% 30.32 in 10.0 mi NW 3.5 mph - 0.01 in Rain Light Rain
10:15 AM 86.0 °F 93.4 °F 73.4 °F 66% 30.32 in 7.0 mi North 3.5 mph - N/A Rain Light Rain
10:35 AM 87.8 °F 95.6 °F 73.4 °F 62% 30.32 in 10.0 mi North 3.5 mph - N/A Rain Light Rain
10:55 AM 87.8 °F 95.6 °F 73.4 °F 62% 30.32 in 10.0 mi North 3.5 mph - 0.01 in Rain Light Rain
11:15 AM 89.6 °F 96.2 °F 71.6 °F 55% 30.31 in 7.0 mi ENE 4.6 mph - N/A Rain Light Rain
11:35 AM 87.8 °F 93.8 °F 71.6 °F 58% 30.31 in 9.0 mi East 3.5 mph - 0.01 in Rain Light Rain
11:55 AM 87.8 °F 95.6 °F 73.4 °F 62% 30.31 in 10.0 mi Calm Calm - 0.01 in Rain Light Rain
12:15 PM 89.6 °F 96.2 °F 71.6 °F 55% 30.30 in 10.0 mi NE 5.8 mph - N/A Rain Light Rain
12:35 PM 91.4 °F 98.4 °F 71.6 °F 52% 30.30 in 10.0 mi ENE 3.5 mph - 0.01 in Rain Light Rain
12:55 PM 91.4 °F 100.1 °F 73.4 °F 55% 30.29 in 10.0 mi ENE 3.5 mph - 0.01 in Rain Light Rain
1:15 PM 89.6 °F 96.2 °F 71.6 °F 55% 30.29 in 10.0 mi NE 4.6 mph - N/A Rain Light Rain
1:35 PM 91.4 °F 98.4 °F 71.6 °F 52% 30.28 in 10.0 mi NE 5.8 mph - 0.01 in Rain Light Rain
1:55 PM 93.2 °F 102.4 °F 73.4 °F 52% 30.28 in 10.0 mi ESE 4.6 mph - 0.02 in Rain Light Rain
2:15 PM 91.4 °F 98.4 °F 71.6 °F 52% 30.27 in 10.0 mi NE 3.5 mph - N/A Rain Light Rain
2:35 PM 93.2 °F 102.4 °F 73.4 °F 52% 30.26 in 10.0 mi NE 5.8 mph - 0.01 in Rain Light Rain
2:55 PM 93.2 °F 100.5 °F 71.6 °F 49% 30.25 in 10.0 mi NNE 4.6 mph - 0.02 in Rain Light Rain
3:15 PM 93.2 °F 100.5 °F 71.6 °F 49% 30.25 in 10.0 mi Calm Calm - N/A Rain Light Rain
3:35 PM 93.2 °F 100.5 °F 71.6 °F 49% 30.24 in 10.0 mi North 3.5 mph - 0.01 in Rain Light Rain
3:55 PM 93.2 °F 100.5 °F 71.6 °F 49% 30.23 in 10.0 mi East 4.6 mph - 0.02 in Rain Light Rain
4:15 PM 93.2 °F 100.5 °F 71.6 °F 49% 30.22 in 9.0 mi ENE 5.8 mph - N/A Rain Light Rain
4:35 PM 93.2 °F 100.5 °F 71.6 °F 49% 30.21 in 10.0 mi Calm Calm - 0.01 in Rain Light Rain
4:55 PM 93.2 °F 100.5 °F 71.6 °F 49% 30.20 in 10.0 mi NNE 4.6 mph - 0.02 in Rain Light Rain
5:15 PM 93.2 °F 100.5 °F 71.6 °F 49% 30.20 in 10.0 mi Calm Calm - N/A Rain Light Rain
5:35 PM 93.2 °F 100.5 °F 71.6 °F 49% 30.20 in 10.0 mi North 4.6 mph - 0.01 in Rain Light Rain
5:55 PM 93.2 °F 100.5 °F 71.6 °F 49% 30.19 in 10.0 mi North 4.6 mph - 0.02 in Rain Light Rain
6:15 PM 93.2 °F 100.5 °F 71.6 °F 49% 30.19 in 10.0 mi NE 4.6 mph - N/A Rain Light Rain
6:35 PM 93.2 °F 100.5 °F 71.6 °F 49% 30.19 in 10.0 mi NNE 4.6 mph - 0.01 in Rain Light Rain
6:55 PM 91.4 °F 100.1 °F 73.4 °F 55% 30.18 in 10.0 mi NE 4.6 mph - 0.02 in Rain Light Rain
7:15 PM 89.6 °F 98.2 °F 73.4 °F 59% 30.18 in 9.0 mi NE 5.8 mph - N/A Rain Light Rain
7:35 PM 89.6 °F 98.2 °F 73.4 °F 59% 30.18 in 7.0 mi NNE 3.5 mph - 0.01 in Rain Light Rain
7:55 PM 87.8 °F 97.6 °F 75.2 °F 66% 30.19 in 5.0 mi ENE 3.5 mph - 0.01 in Rain Light Rain
8:15 PM 86.0 °F 95.1 °F 75.2 °F 70% 30.20 in 10.0 mi NE 4.6 mph - N/A Rain Light Rain
8:35 PM 86.0 °F 93.4 °F 73.4 °F 66% 30.19 in 10.0 mi NE 3.5 mph - N/A Rain Light Rain
8:55 PM 86.0 °F 93.4 °F 73.4 °F 66% 30.20 in 10.0 mi Calm Calm - 0.01 in Rain Light Rain
9:15 PM 82.4 °F 89.5 °F 75.2 °F 79% 30.21 in 10.0 mi NNE 3.5 mph - N/A Rain Light Rain
9:35 PM 82.4 °F 89.5 °F 75.2 °F 79% 30.21 in 10.0 mi NNE 3.5 mph - N/A   Clear
9:55 PM 82.4 °F 89.5 °F 75.2 °F 79% 30.21 in 10.0 mi North 4.6 mph - N/A   Clear
10:15 PM 82.4 °F 89.5 °F 75.2 °F 79% 30.22 in 10.0 mi North 3.5 mph - N/A   Clear
10:35 PM 82.4 °F 89.5 °F 75.2 °F 79% 30.22 in 10.0 mi NNE 3.5 mph - N/A   Clear
10:55 PM 80.6 °F 86.2 °F 75.2 °F 84% 30.22 in 10.0 mi North 3.5 mph - N/A   Clear
11:15 PM 78.8 °F - 75.2 °F 89% 30.22 in 10.0 mi North 3.5 mph - N/A   Clear
11:35 PM 78.8 °F - 75.2 °F 89% 30.21 in 10.0 mi North 4.6 mph - N/A   Clear
11:55 PM 80.6 °F 85.4 °F 73.4 °F 79% 30.21 in 10.0 mi North 3.5 mph - N/A   Clear